Terug naar catalogus

SL-14 DEB

ActiefPO
NORAD 35530·DEBRIS·🇷🇺 Russia

Gelanceerd Sep 28, 1991 vanaf Plesetsk Cosmodrome

Loading…

Volgende Passages (komende 24 uur)

TLE

VersSource: Space-Track

Epoch: Sep 13, 2026, 18:57 UTC

1 35530U 91068AX  26256.79022959  .00000073  00000-0  44146-3 0  9996
2 35530  82.7017 255.8233 0027671  17.8160 158.4135 12.44603782590151

Volg SL-14 DEB in realtime met AllMySat

Download on the App Store